Theta_e
317 317 319 319 318 320 322 323 323 323 325 327 328 329 328 328 329 326 326 328 329 330 329 327 328 328 327 327 325 324 324 324 324 324 324 324 323 322 322 322 322 323 324 321 320 320 321 319 316 315 315 315 316 316 316 316 317 317 319 324 328 330 331 332 332 332 332 332 333 333 333 333 333 333 333 333 334 334 334 334 333 334 334 334 334 333
317 317 317 316 316 318 320 322 323 323 323 325 327 328 329 328 328 327 325 327 328 330 330 327 328 327 326 327 326 325 324 324 324 323 323 322 322 321 321 322 322 322 322 320 319 318 318 317 314 312 313 314 314 313 313 313 313 315 317 321 324 326 329 331 331 332 332 332 333 333 333 333 333 333 333 333 333 333 333 333 333 333 334 334 334 333
319 318 316 315 317 318 320 321 323 324 324 324 325 327 330 329 328 326 325 325 327 329 330 328 328 328 326 326 325 325 325 324 323 322 321 321 321 321 320 321 320 319 318 317 317 317 316 313 311 310 310 311 311 310 309 309 310 312 313 315 318 320 322 327 330 331 331 331 332 332 333 333 333 333 333 333 333 333 333 333 333 333 333 333 333 333
319 318 316 316 316 318 320 321 323 324 324 325 325 326 328 327 327 328 326 325 325 327 328 327 327 327 326 324 324 323 323 323 322 320 320 320 321 321 319 318 316 316 315 314 313 314 313 311 309 309 309 309 308 308 307 307 308 309 309 310 312 314 316 319 324 326 329 331 331 332 332 332 332 332 332 332 331 332 332 331 332 332 333 333 333 333
319 317 316 317 316 318 320 321 323 324 324 325 324 325 326 325 325 327 326 324 325 325 325 326 328 327 325 324 324 322 321 321 321 321 321 320 319 318 316 315 313 312 312 311 309 309 310 309 308 308 307 306 306 306 306 306 306 306 306 306 308 309 309 312 316 320 325 329 330 331 331 331 331 331 331 331 331 331 331 331 331 331 331 332 332 332
317 316 316 318 317 318 319 320 321 322 324 325 323 323 325 325 325 324 324 325 328 328 324 326 330 329 325 324 323 322 322 321 322 321 319 317 315 313 312 311 310 309 309 307 306 306 307 306 305 305 304 304 304 304 304 304 305 304 303 304 304 304 304 306 310 314 319 326 329 330 330 331 331 331 332 332 332 332 332 332 332 331 331 331 331 331
315 314 316 318 318 319 319 319 320 319 321 322 322 322 323 324 324 323 324 324 326 327 323 323 330 331 326 323 321 321 321 321 320 317 314 312 311 310 310 308 307 306 306 306 305 305 305 305 304 304 303 303 302 302 302 303 303 303 302 302 302 303 303 303 305 307 312 319 324 328 329 330 330 331 331 332 332 332 332 332 332 332 331 331 331 330
313 314 317 319 318 318 319 319 319 318 320 320 320 322 322 322 323 322 323 323 322 322 321 321 326 327 325 322 319 319 320 319 316 313 311 310 309 308 307 306 306 305 304 304 304 304 304 304 303 303 302 302 301 301 301 301 301 301 301 302 302 302 302 303 304 304 306 310 315 321 325 327 329 329 330 330 331 331 331 331 331 331 331 331 331 331
311 314 318 320 318 318 318 318 318 318 319 319 318 321 322 321 322 321 321 322 321 321 322 322 322 322 323 321 318 317 319 317 314 313 310 308 307 306 305 305 304 304 303 303 303 302 303 302 302 302 301 301 301 300 300 300 300 300 300 300 300 300 301 302 303 304 304 305 308 311 314 318 322 324 327 328 329 329 330 330 330 331 331 331 331 331
310 311 312 316 319 318 316 315 316 318 319 318 317 320 322 321 322 321 320 322 321 319 321 323 321 318 318 319 318 318 317 314 312 311 309 307 306 305 304 304 303 303 302 302 302 302 301 301 301 301 300 300 300 300 300 300 299 298 298 298 298 298 299 300 301 302 303 304 305 306 308 310 312 315 319 323 326 328 328 329 329 330 330 331 331 331
309 308 308 312 314 314 314 313 314 317 318 318 319 320 320 321 321 320 320 322 320 317 319 322 320 314 313 316 317 316 314 312 310 309 307 306 305 304 304 303 302 302 301 301 301 301 300 300 300 300 299 299 299 298 298 298 298 297 296 297 297 297 297 297 298 300 301 301 303 304 305 306 307 309 312 315 319 322 324 326 327 328 329 329 330 330
310 311 310 309 309 312 315 315 314 315 316 318 321 320 319 320 319 318 320 319 317 315 319 321 318 314 313 315 315 313 311 311 309 307 305 304 303 303 303 302 301 301 300 299 299 299 299 299 299 298 298 298 297 296 296 296 296 296 295 295 295 295 296 296 296 297 298 299 300 301 302 304 305 306 308 310 312 314 317 321 323 325 327 328 328 329
310 311 310 309 310 312 316 318 317 317 317 318 320 317 318 319 316 316 319 317 314 315 318 320 319 317 315 315 312 310 309 308 306 305 303 303 302 302 301 300 300 299 298 298 297 297 297 297 297 297 297 296 295 295 294 294 294 294 293 293 294 294 294 295 295 296 296 297 298 299 300 301 302 303 305 307 308 309 311 313 316 319 322 324 326 327
309 309 309 311 312 311 314 318 317 318 317 318 319 315 316 317 315 317 319 316 315 316 316 318 320 318 316 313 310 308 306 304 303 303 302 302 301 301 300 299 298 298 297 296 295 295 296 295 295 295 295 295 294 294 293 292 292 292 292 291 292 292 292 293 294 294 295 296 296 296 297 298 299 300 302 303 303 304 307 309 311 313 315 318 320 322
309 309 309 309 310 310 312 313 313 317 318 316 316 314 314 315 314 317 318 315 316 316 315 317 317 316 316 312 308 305 304 302 302 301 301 301 300 300 299 298 297 296 296 295 294 294 294 293 293 293 293 293 293 293 292 291 291 291 290 290 290 290 290 291 292 292 293 294 294 295 295 296 296 297 299 300 300 301 303 305 307 308 309 311 313 315
309 310 308 307 307 309 312 311 310 316 317 314 314 314 314 313 312 314 314 313 315 315 316 318 315 312 312 309 305 303 302 301 301 300 300 299 299 298 297 297 296 295 294 294 293 293 293 292 292 292 292 292 292 292 291 291 290 290 289 289 289 289 289 289 290 291 291 292 293 293 294 294 295 295 296 297 298 298 300 301 302 303 304 306 307 308
308 309 308 308 308 308 308 309 309 311 314 314 314 315 313 312 313 313 313 312 313 314 315 317 315 310 309 307 304 302 301 300 300 300 299 298 298 297 296 295 295 294 293 292 292 292 292 291 291 291 290 290 290 290 290 290 289 289 288 288 288 288 288 288 289 289 289 291 291 291 292 293 293 294 295 295 296 297 298 298 299 300 301 302 303 304
307 309 308 308 311 308 305 309 310 309 311 314 315 314 312 311 313 313 314 314 313 312 313 317 316 313 312 311 306 302 301 300 299 299 298 297 296 296 295 294 293 293 292 292 291 292 291 290 290 290 289 289 289 289 289 289 289 288 288 287 287 287 287 287 287 288 288 289 290 290 290 291 292 292 294 294 295 296 296 297 298 299 299 300 301 302
306 310 309 307 310 310 308 311 313 310 310 312 312 312 311 312 313 313 314 315 314 313 313 313 314 313 313 311 305 301 300 300 299 298 297 296 295 294 293 293 292 292 291 291 291 291 290 290 289 289 289 289 289 288 288 289 288 288 287 287 286 287 287 287 287 287 287 288 288 289 289 289 290 291 292 293 294 295 296 297 297 298 298 299 300 300
306 310 310 308 308 309 310 310 312 312 312 311 311 311 311 311 312 312 312 311 311 312 311 310 312 312 309 305 301 299 299 299 298 297 296 294 294 293 293 292 292 291 291 290 290 290 290 289 289 289 289 288 288 288 288 288 288 287 287 287 286 286 286 286 286 287 287 287 287 288 288 289 289 289 290 291 292 293 294 295 296 296 297 298 298 299
307 308 310 310 308 309 310 309 310 312 312 312 312 312 311 310 311 311 310 309 308 309 309 309 312 310 303 299 298 298 297 297 297 296 295 294 293 292 292 291 291 290 290 290 290 290 290 289 289 289 288 288 288 287 287 287 287 287 287 287 286 286 286 286 286 286 286 286 287 287 288 288 288 289 289 289 290 290 292 293 294 295 296 297 297 298
307 308 310 311 310 310 309 305 304 306 308 311 311 312 312 310 310 310 310 309 308 308 309 309 311 308 300 296 296 296 295 295 295 295 294 293 292 292 291 291 290 290 289 289 289 290 289 289 289 288 288 288 288 287 287 287 287 287 287 286 286 286 286 285 285 285 285 286 286 286 287 287 288 288 288 289 289 289 289 290 291 292 294 295 296 296
304 306 309 308 307 307 305 301 300 301 305 308 308 309 311 311 311 309 309 310 309 308 308 308 311 306 297 294 294 294 293 293 293 293 293 292 292 291 291 290 290 290 289 289 290 290 289 289 289 288 288 288 287 287 287 287 287 286 286 286 286 285 285 285 285 284 284 285 286 286 286 286 287 287 288 288 288 288 288 289 289 290 291 292 293 295
302 303 306 305 303 303 302 301 301 301 304 306 304 304 307 310 311 310 309 310 309 309 309 309 311 306 297 293 293 293 292 292 292 292 292 292 292 291 291 290 289 289 289 289 290 290 289 289 289 288 288 288 288 287 287 287 286 286 286 286 285 285 285 284 284 284 284 284 285 285 285 286 286 286 286 286 287 287 287 288 288 288 289 290 291 292
302 301 304 306 305 304 304 305 305 304 303 303 301 301 303 306 308 309 310 310 310 311 310 310 311 305 296 293 292 291 291 291 291 291 291 291 291 291 290 290 289 289 289 289 289 289 289 289 288 288 288 288 287 287 287 287 286 286 285 285 285 284 284 284 283 283 283 284 285 285 285 285 285 285 285 285 285 286 286 287 287 287 288 288 289 290
301 299 301 305 307 307 307 306 306 304 301 300 300 301 301 302 305 308 310 311 311 311 310 311 310 301 294 293 292 291 290 290 290 290 290 291 291 290 290 289 289 289 288 288 288 288 288 288 288 288 288 287 287 287 287 287 286 286 285 285 284 284 284 283 283 282 282 283 284 285 285 284 284 284 284 284 284 285 285 286 286 286 287 287 288 288
298 297 297 301 303 303 302 300 300 300 300 300 300 300 300 300 302 304 307 310 309 308 308 308 306 300 295 293 292 290 289 289 289 289 289 289 290 290 290 289 289 288 288 287 287 287 287 287 287 287 287 287 287 287 287 287 286 286 285 284 284 284 283 283 282 282 282 282 283 284 284 284 283 283 283 283 283 283 284 284 285 285 285 286 287 288
298 298 296 297 298 297 297 297 298 299 300 300 299 299 300 300 299 301 304 306 305 306 307 303 302 302 297 292 291 290 289 288 288 288 288 288 289 290 289 289 288 288 287 287 286 286 286 286 287 287 287 287 287 287 287 286 286 285 285 284 284 283 283 282 282 281 281 282 282 283 283 283 282 282 282 282 282 282 283 283 284 284 284 285 286 287
298 298 296 295 295 295 296 296 297 298 298 298 298 298 298 299 299 299 300 301 302 304 305 301 299 300 295 290 289 289 288 287 287 287 288 288 289 290 289 288 288 287 286 286 285 285 285 286 286 286 287 287 286 286 286 286 286 285 284 284 283 283 282 282 281 281 281 281 282 282 282 282 282 282 281 281 281 282 282 282 283 283 284 284 286 287
297 298 296 295 295 295 295 295 295 295 295 295 296 297 297 298 298 298 299 299 299 301 301 299 298 295 290 288 288 287 287 287 287 287 287 288 289 289 288 288 287 286 285 285 285 285 285 286 286 286 286 286 286 286 286 286 285 285 284 283 283 282 282 281 281 281 281 281 281 281 281 281 281 281 280 280 280 281 281 282 282 283 283 284 285 286
296 296 294 294 295 295 294 294 294 294 294 293 294 294 294 295 296 297 297 297 298 298 298 297 297 294 288 287 287 287 287 286 286 286 287 287 289 289 287 286 285 284 284 284 284 285 285 285 285 286 286 286 285 285 285 285 285 284 283 283 282 282 281 281 280 280 280 280 280 280 281 281 280 279 279 279 279 280 280 281 281 282 283 284 284 285
295 294 292 292 294 294 293 294 294 293 293 292 291 292 292 293 294 295 295 296 296 297 296 296 297 294 288 286 287 287 286 286 286 286 286 288 288 287 285 285 284 284 284 284 284 284 285 285 285 285 285 285 285 285 285 285 284 283 283 282 282 281 281 280 280 280 280 280 280 280 280 280 279 278 277 278 278 279 280 280 281 282 283 283 284 285
292 293 293 292 292 293 293 294 292 292 292 291 292 293 293 293 293 294 294 293 293 295 295 295 294 290 287 286 286 286 285 285 285 285 286 287 287 285 284 284 283 283 283 283 284 284 284 285 285 285 285 284 284 284 284 284 284 283 282 281 281 280 280 280 280 280 279 279 279 279 279 278 277 276 276 277 277 278 278 279 280 281 282 283 284 284
291 293 293 291 291 293 294 293 291 291 291 292 293 293 293 293 294 295 293 291 290 291 292 291 289 287 286 286 286 285 285 284 284 285 286 286 285 284 284 283 283 283 283 283 284 284 284 284 284 284 284 284 284 284 284 283 283 282 281 281 280 280 280 280 279 279 279 278 278 278 278 277 276 275 275 276 276 277 278 279 280 281 282 282 283 284
292 293 292 291 291 293 293 291 291 291 293 293 292 291 291 292 293 293 291 288 288 288 288 287 286 285 285 285 285 284 284 284 284 285 286 285 284 283 283 283 283 283 283 283 284 284 284 283 283 283 283 283 284 284 283 282 282 281 280 280 279 279 279 279 279 279 278 278 278 277 276 275 275 274 275 275 276 276 277 278 279 280 281 282 282 283
292 293 293 292 292 292 291 291 291 292 292 291 290 290 291 292 292 291 291 288 286 286 287 286 285 285 284 284 284 284 284 284 284 285 286 284 284 283 283 283 283 283 283 283 283 283 283 282 282 282 283 283 283 283 283 282 280 280 279 279 279 279 279 278 278 278 278 277 277 276 275 274 274 274 274 274 275 275 276 277 278 279 280 281 281 282
292 292 292 292 291 291 291 292 292 292 292 292 291 290 290 291 291 291 293 291 287 285 286 286 285 284 284 284 284 284 284 284 285 286 285 283 283 284 283 283 283 283 283 283 282 282 282 281 282 282 283 283 282 282 282 280 279 279 278 278 278 278 278 278 277 277 277 276 275 275 274 273 273 273 273 274 274 274 275 276 277 278 279 280 281 281
292 292 292 292 292 291 292 293 292 292 293 293 291 289 288 288 289 290 292 292 287 285 285 285 284 284 284 284 284 284 284 284 285 286 285 283 283 284 283 283 283 282 282 282 281 281 281 281 281 282 281 281 281 281 280 279 278 278 278 278 277 277 277 277 276 276 275 275 274 274 273 272 272 272 273 273 273 274 274 275 276 277 278 279 279 280
292 293 293 294 293 292 293 293 292 293 294 292 290 288 287 287 288 290 292 292 287 284 285 284 283 284 284 283 283 284 284 284 284 284 283 283 283 283 283 282 282 281 281 280 280 280 280 280 280 280 280 280 280 279 279 278 277 277 277 276 276 276 276 275 275 274 274 273 273 272 272 272 272 272 272 272 273 273 274 274 275 276 277 277 278 278
293 293 293 294 294 293 293 293 292 293 293 291 289 288 287 287 288 290 293 292 286 284 284 284 283 284 284 283 283 283 283 283 283 283 283 283 283 282 282 281 281 280 280 280 280 280 279 279 279 279 278 278 278 278 277 276 275 275 275 275 276 275 275 274 274 273 273 272 272 272 271 271 271 271 271 271 272 272 273 273 274 275 276 276 276 277
289 289 290 292 293 293 294 294 293 293 293 290 288 287 287 288 290 292 292 288 285 284 284 284 283 284 283 283 283 283 283 283 283 283 283 283 282 281 281 280 280 279 280 280 279 278 278 278 278 278 277 277 277 276 275 274 274 274 274 275 275 274 274 273 272 272 272 271 271 270 270 270 271 271 270 271 271 271 271 272 273 274 275 275 275 276
286 286 287 290 292 291 292 292 291 291 290 288 287 287 287 289 292 291 287 284 283 284 284 283 283 283 283 283 283 283 283 283 282 282 282 282 281 280 280 279 279 279 279 279 278 277 277 277 277 277 277 276 276 275 274 273 273 273 274 274 274 273 273 272 271 271 271 270 270 269 270 270 270 269 270 270 270 270 271 272 273 273 274 274 274 275
287 287 288 289 289 288 288 289 290 290 288 287 287 287 287 289 289 286 283 283 283 284 284 283 283 283 283 283 282 282 282 282 282 281 281 281 280 280 279 279 279 279 278 277 277 276 276 276 276 276 276 275 274 273 272 272 272 273 273 273 273 272 271 270 270 270 269 268 268 268 269 269 269 269 269 269 269 270 271 271 272 272 273 273 274 274
287 288 288 288 288 287 288 289 290 289 287 286 287 288 288 287 286 284 284 284 284 283 283 283 283 283 283 282 282 282 282 281 281 280 279 279 279 279 279 279 278 278 277 276 276 275 275 275 275 275 275 274 273 272 271 271 271 272 272 272 272 270 269 269 269 269 267 267 267 267 267 267 267 268 268 268 269 269 270 271 271 272 272 272 273 273
287 287 287 287 287 287 288 288 288 287 286 285 286 286 286 286 284 284 284 284 284 284 283 283 283 283 282 282 282 281 281 280 280 279 279 279 279 278 278 278 277 276 276 275 275 274 274 274 274 274 274 273 272 271 271 270 270 270 271 271 270 269 268 268 268 267 266 266 266 266 266 266 266 267 267 268 268 269 269 270 270 271 271 272 272 273
284 283 284 286 286 286 287 287 286 286 286 286 285 285 285 285 284 284 284 284 284 284 283 283 283 283 282 281 281 280 280 280 279 278 278 278 278 278 278 277 276 276 275 274 274 273 273 273 274 273 273 272 271 271 270 269 269 269 269 270 269 268 267 267 266 265 265 265 265 265 265 266 266 266 267 267 268 268 269 269 270 270 271 271 271 272
283 282 284 285 285 285 287 286 284 285 286 285 285 284 284 284 284 283 283 284 284 283 283 283 282 282 281 280 279 279 279 278 278 277 277 277 278 278 277 276 275 275 274 273 273 272 272 272 273 272 272 271 271 270 269 269 268 268 268 268 268 268 266 266 265 264 264 265 265 265 265 265 265 266 266 267 267 268 268 269 269 270 270 270 271 271
283 283 284 285 285 285 286 285 284 284 285 284 284 285 284 284 285 284 282 282 282 282 282 282 281 280 280 279 278 278 278 277 277 277 276 277 277 277 276 275 274 274 273 272 272 271 271 271 271 271 271 270 270 269 268 268 267 267 267 267 267 266 265 265 264 264 264 264 264 264 265 265 265 265 266 266 266 267 267 268 269 269 269 270 270 271
283 283 284 285 284 285 285 285 284 285 285 285 284 284 284 284 284 284 282 281 281 281 281 280 279 279 279 279 279 277 277 277 277 276 276 277 277 276 275 274 273 273 272 271 271 270 270 270 270 270 269 269 269 268 268 267 266 266 266 267 266 265 264 264 263 263 263 264 264 264 264 264 264 265 265 265 266 266 267 267 268 268 269 269 270 270
283 284 284 284 284 285 285 286 285 285 286 286 284 284 284 283 282 283 282 281 280 281 280 279 279 278 277 277 277 276 276 276 276 276 276 276 275 275 274 273 272 272 271 270 270 269 269 269 269 268 268 268 268 267 267 266 266 266 266 265 265 264 264 263 263 262 263 263 263 263 263 263 264 264 264 265 265 265 266 266 267 268 268 269 269 269
284 285 285 284 286 286 285 286 286 285 285 285 284 283 283 283 282 282 282 282 282 282 281 280 279 278 277 276 275 275 275 275 275 275 275 275 274 273 272 271 271 270 270 269 269 269 268 268 268 267 267 267 267 266 266 265 265 265 265 264 263 263 263 263 262 262 262 262 262 262 263 263 263 264 264 264 264 265 265 266 266 267 268 268 268 268
Wind_Speed
10 9 9 11 13 15 15 13 10 5 5 3 8 10 11 9 9 10 5 7 11 9 10 13 12 11 10 9 11 8 1 3 6 5 5 6 4 3 3 4 3 2 2 5 7 9 10 13 18 20 19 19 18 20 21 20 19 17 16 15 12 10 9 10 12 14 17 18 18 18 19 20 20 20 22 23 22 21 20 20 19 19 19 18 19 21
9 9 11 15 14 15 16 12 8 8 8 6 2 4 9 9 6 6 5 5 7 6 7 9 11 12 9 7 9 7 3 5 7 5 6 5 4 3 3 4 4 4 5 7 7 10 14 16 20 21 21 21 20 22 25 25 26 23 18 16 14 12 11 11 12 13 15 17 17 17 17 17 17 18 19 20 19 19 18 19 19 19 18 18 19 21
8 9 13 14 11 13 15 14 10 8 8 7 3 1 5 5 3 5 4 3 3 3 3 4 7 9 6 5 7 7 7 7 4 4 4 4 5 4 3 5 6 7 8 7 7 12 19 21 24 24 22 20 21 24 28 29 28 25 23 20 17 16 15 13 13 14 16 17 17 17 17 16 16 17 17 18 18 18 19 20 19 18 18 18 18 18
8 10 14 13 11 14 15 15 13 7 5 4 2 2 1 1 3 3 2 4 4 1 0 2 4 6 4 5 7 7 7 6 3 3 4 4 5 4 7 7 8 8 8 9 11 13 16 20 24 23 19 19 22 25 28 30 28 24 25 26 24 21 19 17 14 14 16 17 17 18 18 17 17 18 17 18 20 20 22 24 22 20 20 19 18 17
5 5 12 14 13 15 14 14 13 8 6 6 4 3 2 3 3 3 3 3 3 3 3 0 3 4 4 5 6 4 3 4 4 4 4 0 4 7 10 10 10 11 10 12 13 14 16 19 21 21 21 22 24 25 26 27 27 26 28 30 27 27 27 24 18 14 14 15 15 15 15 16 16 17 17 18 19 18 20 24 25 25 23 21 22 21
3 1 9 16 14 14 14 13 13 10 7 6 5 6 6 8 8 7 6 3 2 2 3 2 4 3 1 1 1 1 1 3 3 1 4 9 11 10 11 11 12 13 13 13 14 15 17 19 20 22 25 25 26 26 24 24 26 29 33 33 32 33 34 32 29 23 16 13 12 12 12 13 14 15 15 15 16 15 15 19 22 25 25 23 25 26
3 1 7 15 15 14 13 10 9 10 8 6 5 8 10 11 11 9 7 4 2 2 3 4 3 2 1 0 1 2 2 3 3 10 12 11 11 11 11 11 12 13 13 13 15 17 19 21 23 24 25 26 26 26 25 26 28 31 34 36 38 39 39 38 36 33 27 19 15 13 12 13 14 15 16 15 17 17 17 17 18 19 22 23 24 25
3 4 7 13 15 12 11 8 7 9 9 5 4 9 12 11 11 10 8 4 2 2 2 4 1 0 1 2 3 2 3 1 10 14 12 11 12 14 13 13 14 14 13 13 14 17 20 22 23 23 24 25 25 26 27 28 31 35 34 35 40 42 43 42 40 38 36 29 22 16 13 13 13 15 17 18 18 18 18 19 19 18 19 20 20 21
2 6 9 13 13 9 6 5 6 9 6 3 4 7 8 8 9 10 7 5 4 2 0 1 2 1 1 1 2 2 2 8 12 11 11 13 14 14 14 14 15 14 15 15 15 17 20 23 23 23 23 24 25 26 27 26 30 36 36 37 42 44 43 44 43 41 40 36 30 25 21 17 15 15 16 17 17 17 17 18 19 19 18 18 19 20
2 2 2 5 8 7 5 5 3 5 5 5 7 8 7 6 8 8 5 5 5 2 2 6 6 2 1 2 1 2 6 9 8 8 11 13 13 14 14 14 14 14 14 15 17 20 22 22 22 22 23 26 27 26 26 27 30 37 40 40 42 43 43 44 45 43 43 42 36 31 28 25 23 21 19 17 17 17 17 17 17 17 17 18 18 18
2 2 3 3 4 5 7 7 5 5 7 10 12 11 9 7 6 5 3 3 4 3 1 7 9 4 1 1 3 4 5 6 8 9 11 12 14 14 13 14 14 14 13 14 16 20 22 22 23 25 27 29 29 29 32 33 33 38 42 41 42 45 46 47 48 44 44 43 38 34 32 29 28 26 24 21 20 20 19 18 18 17 16 16 18 18
5 4 2 3 3 4 9 9 7 7 6 6 9 10 8 6 5 4 3 2 4 2 1 5 8 5 2 3 5 5 5 7 10 11 12 14 15 14 13 14 14 14 14 14 15 17 21 23 25 28 29 29 32 34 35 35 35 37 41 43 46 50 50 50 49 47 44 42 39 38 35 33 31 30 27 24 23 24 22 20 19 19 18 16 16 16
5 4 1 3 3 2 7 9 6 5 3 2 7 9 7 5 4 3 3 3 3 1 2 2 6 4 3 5 6 8 11 12 12 12 13 14 14 14 14 14 13 13 14 15 14 15 19 22 24 26 26 27 30 32 31 33 34 34 39 43 45 47 49 50 49 48 46 42 40 40 37 34 33 33 29 25 26 26 23 22 21 20 19 18 17 16
4 5 4 3 2 5 4 5 4 3 4 3 4 6 5 5 4 4 4 2 1 2 1 0 3 3 5 6 7 12 15 14 14 13 13 14 15 15 14 13 13 14 14 14 13 14 17 21 22 23 24 24 26 28 28 31 33 34 38 42 42 44 49 50 48 49 47 42 41 41 39 38 36 34 29 27 30 30 26 25 23 22 21 20 19 19
3 5 6 5 2 5 6 4 3 3 6 3 2 0 3 4 2 4 4 2 2 3 2 1 2 0 5 5 6 12 13 13 13 13 13 14 14 13 13 13 14 14 13 12 12 15 18 20 21 21 22 22 23 26 27 29 32 35 39 42 41 44 49 50 48 49 48 44 43 43 41 42 40 36 32 30 33 34 31 29 26 24 24 22 21 21
3 5 6 4 2 5 5 4 4 3 5 2 2 1 1 1 1 2 3 1 2 4 3 3 1 5 7 7 6 9 12 12 13 13 14 14 13 12 12 12 13 12 12 12 11 14 17 19 19 20 21 21 22 24 26 28 31 33 37 42 42 43 46 48 47 48 47 44 44 45 44 44 44 42 39 37 37 37 35 34 32 30 30 28 27 27
2 5 6 4 4 6 5 3 4 2 1 2 2 2 2 3 1 3 3 2 1 2 3 4 5 7 7 7 6 8 11 12 12 13 14 13 13 13 12 11 11 11 11 11 11 13 17 19 19 19 20 21 23 24 25 27 30 31 34 39 42 45 48 49 48 47 47 45 44 46 46 46 46 46 44 42 41 39 38 38 37 36 36 35 34 33
1 5 6 5 6 6 4 2 6 6 3 1 3 3 3 1 1 1 2 2 1 2 3 4 7 9 6 5 6 7 9 11 11 12 12 12 12 13 12 11 11 11 10 11 12 14 17 18 19 20 20 21 22 23 24 25 27 30 34 37 39 42 45 47 48 47 47 45 44 45 47 46 46 47 46 45 44 42 41 41 40 39 39 38 37 36
2 4 5 4 3 3 3 1 4 6 5 2 2 2 1 2 2 2 2 3 3 3 3 3 6 5 2 4 7 7 8 9 10 10 11 12 12 11 10 10 10 10 9 10 10 12 15 17 19 20 20 21 22 22 22 23 25 29 33 36 38 38 40 44 47 48 48 46 44 45 45 44 45 46 46 46 45 44 44 44 43 42 41 39 38 37
2 1 3 3 2 2 3 1 2 3 3 2 2 2 1 2 0 2 1 1 2 4 3 3 5 3 3 5 7 8 8 8 9 9 10 11 11 9 8 8 9 9 9 9 9 10 14 16 17 18 19 20 21 21 22 23 24 26 27 30 34 37 41 44 46 46 47 46 45 46 45 45 45 45 46 46 45 45 45 44 43 42 42 41 40 38
2 1 3 2 2 2 1 3 1 0 1 2 2 2 1 1 1 1 1 2 1 2 3 3 4 3 4 5 7 9 8 8 9 8 8 9 9 9 8 8 8 8 8 8 8 10 12 14 15 16 17 17 19 21 22 22 22 23 24 25 27 30 34 39 42 44 45 44 44 45 45 46 45 45 45 45 44 44 45 44 42 41 41 40 39 39
3 1 4 4 2 2 3 3 3 3 2 0 1 2 1 1 1 3 2 1 1 1 1 2 3 3 3 4 6 8 8 8 8 8 7 7 7 7 7 7 7 7 8 8 8 10 12 13 14 16 16 17 19 20 22 22 22 22 23 24 25 26 27 30 34 38 41 41 41 42 43 45 45 45 45 45 43 44 44 44 42 41 40 39 38 38
2 2 5 5 3 3 2 2 1 2 3 2 3 1 0 1 1 4 4 2 1 0 0 1 1 4 5 5 6 6 7 7 7 7 6 6 6 7 7 7 7 8 8 9 9 11 12 13 14 16 17 18 19 20 21 21 21 22 22 23 24 25 26 29 31 34 38 37 36 39 41 42 44 45 45 45 45 45 44 43 41 39 38 37 37 36
1 1 4 4 2 3 2 1 1 2 1 2 5 5 2 1 1 1 1 1 2 3 2 2 3 4 5 5 6 5 6 6 6 7 7 6 6 6 7 8 8 8 9 10 12 13 14 15 16 17 18 19 20 21 22 21 21 21 22 23 24 25 27 30 30 33 37 35 33 34 36 38 41 43 43 44 44 45 45 43 41 39 37 35 34 34
1 1 1 4 3 2 1 1 2 1 2 3 3 5 4 4 3 1 1 1 4 4 4 6 5 4 6 5 5 5 5 5 6 6 6 6 6 6 7 7 8 9 10 12 13 15 17 18 19 20 20 21 22 22 23 22 22 22 22 24 25 25 28 31 32 35 36 33 29 28 29 31 35 38 40 41 42 44 44 43 42 42 39 34 32 32
1 2 1 2 4 3 2 1 1 1 2 2 2 4 6 6 4 1 1 3 5 3 4 7 3 5 7 6 5 5 5 6 6 6 6 6 6 6 6 7 8 9 11 14 14 15 18 20 22 23 23 23 23 23 23 23 23 23 23 25 25 25 27 30 32 36 36 32 27 25 25 25 27 30 32 34 38 40 40 40 41 43 40 36 33 31
3 4 5 4 3 2 3 2 1 1 1 2 1 3 4 4 3 1 2 5 3 1 3 3 4 8 8 3 4 4 6 6 6 7 7 7 6 6 6 7 8 9 11 13 14 16 18 20 23 25 25 25 25 24 24 23 23 22 23 25 25 25 28 30 31 33 32 29 26 24 24 25 25 26 26 29 33 35 34 36 37 38 39 37 33 30
4 4 5 6 7 4 3 2 1 2 2 2 1 0 1 2 2 2 4 3 1 2 5 1 6 8 7 3 4 3 5 6 7 8 8 7 6 5 4 6 8 10 11 12 13 15 17 18 21 23 24 25 25 26 25 24 23 22 22 24 24 25 28 30 31 32 30 26 24 23 22 23 24 24 25 29 32 31 31 33 34 35 37 36 32 28
4 3 3 2 5 5 4 3 2 2 2 0 2 2 2 2 2 4 4 2 1 5 4 3 5 4 5 4 3 4 6 6 7 8 8 7 6 4 3 6 8 9 11 12 13 14 14 16 20 22 22 23 24 26 26 24 23 22 23 24 25 27 30 31 32 31 28 25 24 23 23 23 22 21 24 28 30 29 29 30 31 33 34 32 28 26
2 3 1 0 4 6 5 4 4 4 3 2 3 4 3 4 4 5 5 4 4 7 5 4 3 4 5 3 3 5 5 5 6 7 7 7 6 4 4 7 8 9 11 12 13 13 14 16 18 20 21 21 23 25 24 23 22 22 22 23 24 27 30 33 33 31 27 25 25 25 24 23 21 22 25 26 26 26 27 28 29 29 29 27 25 24
2 2 0 1 2 3 4 3 3 4 3 4 5 5 5 5 6 7 6 5 6 7 5 4 1 4 4 2 2 3 4 5 6 7 7 6 5 4 6 8 9 11 12 13 13 13 15 17 18 19 20 21 23 23 22 23 22 20 20 21 23 25 28 29 30 28 26 26 26 26 24 22 23 26 28 28 27 26 26 26 26 26 25 25 24 24
3 2 1 0 2 1 2 3 5 6 5 6 6 4 4 5 5 4 3 2 4 3 1 2 2 2 4 2 1 2 4 6 7 8 7 5 4 5 7 9 11 13 13 13 13 13 15 17 18 19 21 22 23 23 23 24 24 21 19 20 22 24 26 26 25 24 23 24 24 24 23 22 24 27 29 30 30 29 28 26 25 25 24 23 23 24
2 2 2 1 2 2 1 4 6 7 6 5 3 2 3 3 3 2 2 2 1 2 2 2 1 3 4 2 1 3 5 6 8 7 5 4 4 5 8 11 12 13 13 13 14 14 16 18 19 20 22 22 23 23 24 24 24 23 22 21 22 24 25 25 23 22 23 23 22 21 21 21 24 27 28 29 29 30 29 28 26 25 24 23 23 23
1 2 2 1 1 1 1 4 4 3 4 1 2 1 1 2 2 2 3 3 3 2 1 3 4 4 2 2 2 3 5 5 7 7 3 2 4 7 10 12 12 12 13 13 14 16 18 19 20 21 22 22 23 23 23 22 22 22 22 22 24 26 26 25 24 23 23 22 21 20 20 22 24 26 27 27 27 27 27 27 27 25 24 23 23 24
3 3 2 1 1 1 0 2 1 2 1 1 2 2 2 1 1 4 5 4 4 4 4 5 4 3 2 2 1 2 3 6 9 7 1 3 5 9 11 11 11 12 12 12 14 18 19 20 22 23 23 23 23 23 22 21 20 20 22 23 25 26 25 25 24 23 22 22 21 21 21 23 25 26 26 26 26 26 25 25 24 24 24 24 24 24
2 3 2 1 1 1 1 1 2 1 3 3 2 0 1 2 4 5 3 3 4 3 3 4 3 2 1 1 1 2 4 7 8 4 4 3 7 9 10 11 11 12 13 14 16 19 20 21 22 23 23 23 22 22 22 20 18 20 23 24 25 25 25 24 23 22 22 22 22 21 22 23 25 25 26 26 25 25 25 24 23 23 24 24 24 25
1 2 1 1 0 1 1 2 3 4 4 3 2 2 2 2 2 1 2 3 6 4 2 3 2 1 1 2 2 3 6 7 5 5 5 4 9 10 11 13 13 15 16 17 18 19 20 21 22 22 22 22 22 22 21 20 19 22 25 25 24 24 24 23 22 22 23 23 23 23 23 24 25 26 26 25 24 24 23 23 23 23 23 24 25 25
0 0 1 1 1 1 0 2 2 3 3 2 3 4 2 1 2 2 1 3 7 6 4 3 1 1 2 3 4 5 6 5 3 2 1 6 10 12 13 14 15 16 17 18 19 19 19 20 20 21 21 22 22 22 22 22 23 24 25 25 24 24 23 22 21 21 22 23 24 24 24 25 26 27 26 25 24 24 23 23 23 22 22 23 24 26
1 1 1 0 2 3 2 1 2 3 3 2 6 6 3 1 4 3 3 3 5 6 5 3 0 1 2 3 5 5 5 5 5 3 4 8 11 12 13 14 14 16 17 17 18 18 19 20 20 21 21 22 23 23 23 25 25 24 24 24 23 21 20 19 20 21 22 24 24 23 24 26 27 26 25 25 25 24 24 23 23 22 22 22 23 24
1 0 1 2 3 4 3 2 3 4 2 3 8 6 3 2 4 3 4 2 5 6 5 4 1 2 2 3 4 3 3 5 6 6 8 11 12 12 13 13 14 16 16 16 16 17 20 20 20 20 21 22 23 22 22 24 24 23 23 22 20 18 18 18 20 20 20 21 22 24 26 26 25 24 25 25 26 25 24 23 23 23 23 23 23 23
0 1 0 2 3 4 5 4 4 4 2 5 7 5 4 4 4 3 3 1 5 6 6 4 3 2 2 3 3 3 3 5 7 9 11 12 11 11 12 13 14 15 14 14 15 18 19 18 19 20 20 20 20 20 21 22 21 20 19 18 17 17 18 19 20 20 19 20 23 26 26 24 22 23 24 24 24 25 24 23 23 24 24 23 23 23
1 1 0 1 2 3 3 4 4 5 2 6 7 4 2 4 3 2 1 3 5 6 6 5 4 3 3 4 4 5 6 7 9 10 10 10 10 10 11 12 13 13 12 14 16 17 17 18 19 19 18 18 18 19 19 19 19 18 17 16 16 18 19 20 20 19 20 23 25 25 24 23 22 21 22 22 22 24 25 24 23 23 23 23 23 23
3 3 2 3 3 1 1 2 3 3 0 7 8 4 4 4 1 1 2 4 6 6 5 5 5 4 5 6 6 7 8 9 9 9 9 10 10 9 9 10 11 12 13 14 15 16 16 17 17 17 18 18 18 17 17 18 18 18 17 17 18 18 19 19 19 18 21 25 27 26 25 23 23 22 22 22 22 23 24 24 23 23 22 22 22 22
3 3 2 2 3 3 3 4 2 1 2 6 5 3 3 2 2 3 3 3 5 6 4 4 5 6 6 6 6 7 7 8 9 8 8 9 10 10 10 10 10 12 13 13 13 14 15 16 16 17 18 18 16 16 16 16 17 18 18 18 18 17 18 19 17 17 21 26 28 29 28 27 27 26 24 22 22 22 22 23 23 22 21 21 21 20
3 1 0 1 3 3 3 4 1 1 3 5 3 1 2 3 3 2 4 3 4 5 4 4 5 5 6 6 6 7 7 7 7 7 8 9 10 11 11 10 10 11 12 12 12 13 14 15 16 18 19 17 15 15 15 15 16 19 20 18 16 16 18 19 18 19 25 30 29 30 32 31 29 27 23 21 21 20 20 22 21 20 20 20 20 19
1 1 1 1 1 3 6 5 4 3 5 6 4 2 2 2 1 3 5 5 5 5 5 5 5 5 5 5 5 6 7 7 7 8 8 9 10 11 11 10 11 11 11 11 13 14 14 15 16 17 19 18 16 14 14 15 15 17 19 18 15 15 16 18 20 24 29 31 30 31 31 29 27 25 23 21 20 18 18 19 19 19 19 19 19 19
1 3 2 2 1 2 4 3 4 5 7 6 6 4 3 4 4 4 5 6 6 6 6 6 5 5 5 5 6 7 8 7 7 7 7 8 10 10 9 11 13 12 11 11 13 14 15 16 16 17 19 19 17 14 14 16 16 16 18 18 16 15 18 20 22 24 29 31 31 30 29 26 24 24 22 20 19 18 18 18 18 18 19 18 19 20
2 3 3 4 4 5 4 2 2 5 6 5 6 5 4 5 6 6 6 5 4 5 6 6 6 6 6 6 7 8 7 7 7 7 7 8 9 9 9 11 13 13 12 12 13 13 14 15 16 18 19 19 18 16 16 17 17 17 17 17 16 17 19 20 20 23 28 30 28 27 26 25 23 22 21 20 19 18 17 17 18 18 17 18 19 20
3 3 4 4 4 6 7 6 6 7 7 7 7 7 6 6 6 6 6 5 4 5 6 7 8 8 8 7 7 7 7 8 7 7 8 9 10 9 10 12 13 13 14 13 13 13 13 14 15 17 18 18 17 16 16 16 17 17 16 15 16 17 17 19 20 23 27 28 26 24 23 22 21 20 19 19 19 18 17 17 18 19 19 18 19 21
4 6 5 3 4 7 6 6 6 6 7 5 6 7 7 6 6 6 6 6 7 8 7 7 8 8 8 8 7 6 7 7 8 8 9 10 10 10 11 12 13 14 14 14 13 13 13 13 14 16 17 16 14 13 13 14 16 16 15 16 17 15 15 18 20 20 22 23 23 21 20 20 19 19 19 19 19 19 19 18 17 18 19 19 20 22
8 9 8 6 7 6 4 5 6 5 6 5 3 5 6 6 6 7 8 8 9 8 7 7 7 6 7 7 8 8 8 9 9 9 9 11 11 11 11 12 12 14 15 15 14 14 14 14 14 15 16 15 13 13 14 16 16 15 15 18 18 14 14 18 20 18 17 18 19 18 19 20 20 19 18 18 19 20 21 20 18 17 16 18 21 23
Wind_Direction
166 166 182 199 199 199 198 190 184 133 79 177 201 200 192 188 197 190 160 157 177 189 205 212 221 228 224 222 245 257 270 271 259 245 247 256 265 285 315 319 328 344 78 75 53 41 28 21 23 21 18 17 13 12 11 9 9 9 2 350 337 323 304 281 270 262 255 251 251 251 250 251 252 251 251 251 249 248 250 250 249 249 250 249 250 250
168 181 193 199 198 196 191 177 148 114 92 92 147 210 193 189 186 165 143 155 184 209 208 213 227 231 230 217 232 253 263 256 253 249 252 263 282 295 313 318 329 354 49 72 72 61 43 35 38 36 30 25 23 20 18 19 19 18 11 357 348 347 336 306 288 274 264 258 253 251 250 252 254 251 249 250 251 249 250 252 250 250 250 250 251 252
173 195 196 190 187 186 185 181 168 138 108 95 84 210 192 175 135 108 84 101 164 229 207 193 229 235 232 230 244 258 258 256 261 277 286 291 287 297 344 355 10 25 43 55 53 48 40 37 41 40 33 28 30 28 26 27 28 26 21 16 12 6 357 335 312 294 280 273 264 258 257 259 260 258 256 256 256 254 254 255 254 254 254 253 252 252
177 198 187 173 177 179 178 187 188 170 146 150 133 118 134 121 127 129 76 58 80 52 22 153 227 244 235 235 246 247 252 266 281 271 261 254 278 339 41 44 38 40 48 51 47 46 45 42 39 34 27 26 30 29 25 25 25 23 23 27 30 24 15 4 341 315 299 286 276 270 268 267 267 268 267 265 265 263 261 261 259 257 254 252 253 254
150 174 165 161 176 178 175 185 190 191 192 190 165 133 130 120 101 89 90 78 78 58 26 73 224 255 255 246 246 228 229 262 254 242 246 50 47 51 63 61 54 54 56 58 56 50 48 44 38 31 26 27 30 26 22 21 20 21 24 26 30 34 31 25 16 353 325 303 289 285 282 278 274 272 270 268 269 266 262 265 267 266 261 255 256 257
110 90 164 162 170 174 177 187 191 195 195 188 180 170 157 135 116 97 98 101 119 95 21 331 225 235 287 249 233 125 177 250 251 15 42 60 64 66 69 67 65 63 59 58 55 50 46 44 39 33 29 27 26 22 19 20 20 22 27 27 28 33 33 30 30 23 2 331 309 301 295 289 285 282 277 273 275 273 269 272 274 274 273 268 266 265
98 189 178 164 164 165 169 181 189 192 191 193 184 168 156 134 122 117 107 91 120 142 4 335 241 187 36 306 74 66 244 252 44 57 59 62 63 67 71 73 69 63 58 55 51 48 44 41 38 35 31 28 25 20 17 21 22 24 28 29 29 32 31 31 32 31 25 9 344 324 307 297 292 290 289 288 289 288 286 283 279 277 276 274 273 272
119 136 162 162 162 164 165 169 181 191 188 174 150 157 157 145 138 132 118 109 117 106 10 343 312 126 293 292 28 14 261 29 61 64 64 66 69 70 68 65 64 60 57 54 48 45 41 39 38 35 33 31 27 24 23 25 26 28 30 29 30 32 31 31 32 33 32 25 13 357 337 321 309 302 299 299 298 295 295 291 286 284 279 275 272 272
106 133 152 157 158 164 157 133 155 179 177 125 125 154 152 142 145 139 125 129 136 130 132 162 199 254 257 186 51 341 356 67 71 73 73 74 74 71 64 60 60 57 54 52 48 45 40 38 37 34 32 31 28 26 25 24 24 28 31 30 31 32 30 30 31 31 32 30 25 18 10 358 343 330 317 310 307 303 301 299 297 294 290 284 277 273
41 100 151 142 142 144 109 71 96 154 139 119 132 126 104 106 126 130 127 130 140 212 222 168 179 234 292 187 159 40 61 79 86 81 80 80 74 68 62 57 54 52 50 48 46 43 40 38 35 32 31 30 26 23 22 22 21 25 29 29 30 30 29 29 30 30 30 30 26 19 15 8 1 355 343 331 324 318 314 309 306 303 299 296 291 285
65 28 322 25 88 123 102 67 41 76 110 133 137 121 106 107 106 103 105 125 166 227 187 163 176 195 241 132 83 57 75 113 117 96 86 79 71 66 60 54 50 49 46 44 43 40 36 34 31 30 30 27 24 22 22 22 20 22 25 25 26 27 28 29 29 29 28 28 24 19 16 12 7 3 357 350 343 336 331 323 316 311 306 302 298 294
56 46 332 353 11 119 105 83 55 59 89 131 141 131 115 110 109 105 110 181 216 219 72 154 176 189 191 82 60 49 74 107 109 100 91 79 71 66 59 54 50 47 44 41 39 34 30 29 26 26 27 24 22 21 21 19 18 20 22 23 24 26 26 27 27 27 27 26 23 20 17 14 11 9 4 359 353 348 342 335 329 322 315 309 304 299
55 59 56 332 343 73 99 100 85 68 73 134 152 145 131 131 145 147 153 194 216 178 32 141 180 178 94 63 51 61 73 81 86 85 83 78 73 68 61 56 51 47 44 40 36 32 28 26 24 23 23 21 20 19 17 17 17 18 19 22 23 22 23 24 24 25 25 24 21 20 17 13 12 12 10 5 1 358 350 344 338 332 327 321 317 312
74 94 50 20 27 360 26 106 110 117 142 143 152 159 155 145 152 166 166 188 203 129 54 80 209 177 100 64 49 73 78 77 78 76 74 74 71 68 63 57 54 49 45 41 37 34 31 27 24 22 21 20 18 17 15 16 16 16 18 19 19 19 20 22 21 21 23 21 20 19 18 15 13 11 10 8 7 5 0 355 348 342 339 332 328 325
79 96 30 12 351 343 15 54 43 106 126 106 7 299 157 142 160 180 168 165 138 115 116 196 259 110 112 89 60 80 82 76 76 74 73 71 68 67 63 56 53 48 44 41 37 37 33 29 25 23 21 20 17 16 15 15 15 15 17 17 17 16 17 18 18 18 19 18 17 17 16 16 14 11 8 7 8 8 5 2 357 353 350 344 338 333
56 70 14 351 319 343 27 27 355 84 107 83 316 302 109 60 16 120 96 80 116 103 132 168 59 54 99 106 85 83 79 73 73 72 71 69 64 63 59 52 48 45 41 38 36 36 33 30 28 25 23 20 17 17 16 15 14 14 15 16 16 15 15 16 15 15 15 15 14 14 14 14 14 12 9 7 7 7 6 4 2 359 359 356 351 346
66 62 360 349 52 26 17 15 14 26 96 127 172 158 73 14 18 115 88 54 101 149 160 152 111 104 116 112 97 87 77 70 67 67 67 65 61 59 54 48 45 42 40 37 36 34 31 30 29 26 24 21 18 17 16 15 14 14 14 14 14 13 13 14 13 12 12 12 11 10 10 10 10 11 10 8 7 5 4 4 3 1 359 358 357 354
57 86 25 9 64 43 341 3 55 34 2 100 146 135 104 19 343 107 113 111 158 197 165 157 148 149 161 149 118 88 73 68 64 65 64 61 58 56 53 48 43 41 40 37 36 34 31 29 27 25 24 21 19 18 15 14 14 14 14 13 12 11 10 10 10 9 9 9 8 7 7 7 6 6 7 7 7 5 3 2 2 1 358 357 356 355
335 97 54 15 49 34 325 294 87 56 21 30 105 94 119 210 181 165 159 145 189 201 161 180 178 165 164 135 115 78 61 64 63 61 58 55 53 53 51 46 43 41 38 35 34 32 30 29 26 23 21 19 18 17 15 13 13 13 13 13 12 10 8 8 8 7 6 7 5 3 4 4 3 3 2 3 4 4 2 2 1 360 358 356 355 353
329 77 83 30 354 325 354 346 173 108 50 48 95 81 358 324 256 188 149 112 209 191 156 185 186 147 39 68 85 67 55 55 58 58 55 52 51 50 48 42 40 38 35 34 32 30 29 27 25 22 20 18 16 14 13 11 12 11 10 10 9 9 8 7 7 5 4 4 2 1 0 0 0 0 360 360 0 360 360 360 359 357 356 356 354 352
328 51 119 88 1 273 75 38 340 34 86 137 145 149 132 30 325 212 86 47 309 191 169 189 175 126 49 48 68 64 52 47 55 61 58 53 50 49 45 41 39 37 34 32 28 28 27 23 22 22 20 18 16 14 12 10 9 8 7 7 6 5 5 4 4 4 2 0 359 358 358 357 357 357 358 358 358 357 356 356 356 354 354 354 353 352
354 67 114 108 75 76 76 26 350 333 320 323 165 200 176 113 182 194 181 114 2 283 199 195 166 112 67 54 66 66 56 49 51 55 58 54 48 47 44 40 39 36 32 29 24 22 20 16 16 16 17 17 15 14 12 10 8 6 5 4 3 2 1 360 360 0 359 358 357 356 355 354 354 354 354 355 355 354 353 353 352 351 350 350 350 350
342 70 88 90 67 55 42 339 307 283 305 16 50 29 337 298 241 224 217 168 157 200 60 257 170 111 95 80 77 74 69 60 49 44 48 45 39 40 38 35 34 31 28 24 21 18 14 12 11 10 11 13 12 10 8 7 6 4 3 2 1 0 359 357 356 356 356 356 353 353 353 352 352 352 352 352 351 351 351 350 349 348 347 346 345 345
5 62 81 93 64 42 41 318 205 239 280 55 46 27 359 278 328 276 287 72 195 195 170 229 213 138 120 100 89 86 80 71 54 41 36 31 29 28 27 26 24 23 21 17 16 13 10 8 8 7 7 7 6 6 4 3 3 1 1 360 359 358 356 355 354 353 353 352 349 350 351 350 351 350 350 350 349 348 348 347 346 344 343 341 340 339
39 10 74 124 119 90 113 182 178 154 50 57 42 17 12 26 37 36 58 42 237 213 194 230 233 139 129 122 101 88 75 66 55 41 32 27 23 18 19 21 18 16 15 13 11 9 6 5 4 3 2 1 360 359 359 359 359 359 358 357 355 354 353 353 352 351 351 348 345 345 346 346 347 348 348 347 346 345 345 344 343 343 341 339 336 334
50 29 353 156 159 169 163 160 168 112 58 53 34 17 22 29 23 16 122 208 229 198 194 234 246 116 129 126 101 78 56 47 41 32 26 27 24 18 18 17 14 13 10 8 6 3 1 360 358 357 357 356 355 354 354 354 354 354 354 354 353 351 350 350 350 350 349 346 342 339 339 341 342 342 343 343 343 343 341 340 340 340 340 337 334 332
113 62 11 25 67 87 98 96 14 356 78 122 59 21 17 14 10 24 213 224 218 159 223 231 124 139 155 125 75 60 38 30 25 16 14 19 20 19 21 17 14 13 9 6 2 357 355 354 352 351 350 349 349 349 349 349 349 349 349 349 350 349 349 348 347 346 345 342 339 335 335 336 336 336 337 338 339 339 337 336 336 336 336 335 333 330
117 70 4 23 51 49 67 88 303 326 92 140 167 154 317 321 321 212 227 227 141 226 247 131 107 148 158 93 58 51 34 25 16 7 3 7 13 17 22 20 15 11 7 3 357 354 351 348 346 344 344 344 344 343 343 343 344 345 345 345 345 346 346 345 344 343 341 338 336 332 331 331 331 331 332 334 335 335 334 334 334 333 333 333 330 326
97 71 345 16 55 45 40 39 15 17 48 11 266 261 270 289 264 236 254 293 199 238 254 54 69 115 124 94 54 40 29 17 6 356 351 0 13 23 24 19 15 8 1 356 353 351 347 342 340 338 338 339 339 339 338 337 338 340 341 342 342 343 343 342 341 339 337 335 334 331 329 328 327 327 328 331 332 330 329 330 331 330 329 327 325 321
85 79 29 89 81 61 37 27 35 35 11 312 276 267 269 271 263 259 273 294 272 267 294 349 31 93 101 77 34 37 25 10 355 344 350 6 14 24 24 14 7 359 354 350 347 345 341 337 336 334 334 335 336 336 333 332 333 335 336 337 338 339 339 339 337 335 334 332 331 329 328 327 327 328 328 328 327 325 325 324 325 325 323 321 319 317
14 92 89 220 123 70 26 8 11 9 340 295 280 271 263 258 254 254 258 267 270 273 303 328 309 128 113 66 39 43 22 11 351 343 355 10 19 29 18 6 357 351 348 345 342 339 336 335 334 333 334 334 333 332 330 328 328 328 330 332 333 334 334 333 332 330 329 329 328 328 327 326 328 329 329 328 326 324 322 320 320 320 317 316 316 315
18 120 152 273 173 147 31 10 342 336 311 274 261 239 226 232 234 239 246 261 267 259 284 318 265 147 116 99 83 55 25 9 350 344 355 11 34 35 9 357 352 346 342 339 336 335 334 334 334 334 333 331 331 330 328 327 325 324 326 328 329 329 329 328 326 324 323 324 324 326 326 325 327 328 328 328 326 325 323 319 317 317 316 314 314 314
34 133 140 143 201 202 25 0 341 324 293 258 224 175 175 190 195 184 126 79 17 259 256 272 228 106 98 90 68 36 16 359 340 336 352 17 31 21 2 353 345 338 336 334 332 333 333 332 332 331 329 328 328 327 327 326 324 324 326 326 326 327 326 325 322 320 320 321 322 323 323 324 324 324 325 325 324 323 323 320 316 316 316 315 313 313
126 108 118 175 210 163 1 349 337 292 267 200 104 51 267 230 222 190 143 102 87 101 90 81 93 99 90 60 50 14 355 337 316 313 340 50 19 358 352 345 337 331 331 330 329 330 330 329 328 327 326 324 324 324 325 325 324 324 326 326 326 326 325 323 321 320 319 321 322 323 323 323 322 321 322 322 322 320 318 316 314 314 315 315 314 313
138 109 109 148 121 119 60 335 273 234 263 112 98 12 337 303 117 114 116 112 108 110 114 111 105 103 82 48 30 336 323 304 296 293 193 89 9 351 342 333 330 330 328 327 328 328 328 328 327 325 324 324 324 324 324 325 327 326 326 327 326 324 323 321 320 320 321 322 324 323 323 323 323 321 320 320 320 319 316 313 311 312 314 314 313 312
138 131 113 95 94 136 161 207 218 286 315 275 247 311 75 115 127 126 134 154 149 140 146 140 117 92 79 341 312 309 296 289 286 250 153 69 0 345 334 328 327 328 327 326 327 327 327 328 325 324 325 324 325 325 324 327 332 330 327 326 324 321 320 320 319 321 324 325 325 324 323 323 323 321 320 319 318 317 315 313 311 311 312 311 310 310
107 147 127 57 281 190 178 237 271 308 292 242 205 178 164 139 139 169 272 191 166 164 168 153 125 49 333 314 318 305 287 278 260 186 148 36 355 337 329 327 324 324 325 325 326 325 326 326 325 326 327 325 325 326 326 330 334 331 325 323 321 319 319 319 320 323 325 325 325 324 323 323 323 321 319 318 316 313 313 313 312 311 311 310 309 308
80 306 288 284 199 152 154 279 285 293 269 183 130 129 113 61 138 150 301 212 174 166 165 158 117 353 331 328 328 319 305 295 275 195 115 0 345 331 326 323 321 324 324 324 325 325 326 327 327 327 327 326 326 327 328 330 331 328 322 320 319 319 319 320 322 324 324 324 324 324 323 322 322 320 318 317 315 313 312 311 310 310 310 310 308 306
166 319 314 208 165 165 190 241 225 242 260 155 140 134 111 147 174 175 289 260 171 158 168 170 184 318 320 331 335 338 333 319 311 320 344 339 332 325 321 318 320 322 321 321 324 326 327 328 327 327 328 327 327 327 330 332 331 327 322 319 320 320 320 321 322 322 321 320 321 322 322 321 320 318 317 316 314 313 312 311 310 308 308 309 307 304
145 290 232 191 187 187 199 227 236 250 267 132 141 141 130 159 175 220 286 262 155 164 180 180 209 290 314 328 327 333 328 310 307 318 325 322 319 317 316 317 320 319 318 321 326 328 329 328 328 329 329 328 327 329 332 333 330 324 320 319 319 320 320 320 320 318 316 316 318 319 318 318 318 317 317 316 314 314 312 310 310 309 309 309 307 306
53 338 343 216 216 209 217 238 258 265 249 143 148 149 141 155 181 235 267 147 152 176 184 188 229 261 276 295 299 295 291 290 293 301 309 310 310 311 311 313 314 314 316 322 328 330 328 326 327 326 325 325 327 328 331 331 325 319 318 318 318 318 319 319 318 316 315 315 316 317 317 318 317 317 317 316 314 313 312 311 311 311 311 310 308 307
179 178 110 196 206 212 226 248 271 282 246 145 141 134 154 185 209 231 151 137 166 181 185 202 229 242 247 255 261 266 278 284 284 290 297 298 298 301 306 309 310 313 319 324 327 330 328 325 323 321 320 324 325 325 328 328 322 318 319 318 317 318 320 320 317 315 317 317 318 318 318 318 317 317 318 317 315 313 311 311 312 311 311 310 309 308
169 169 185 188 177 152 183 220 258 298 158 142 139 144 199 221 218 100 136 166 179 183 192 209 221 231 243 250 255 259 270 278 279 282 288 292 295 300 305 309 312 317 324 326 325 328 328 322 318 316 318 322 324 325 329 327 321 319 318 316 317 319 321 319 316 315 317 319 319 321 320 319 320 323 322 318 316 314 313 313 313 312 312 312 311 310
191 193 214 205 177 153 169 197 220 329 169 173 170 170 193 187 101 121 165 183 186 193 206 221 225 226 232 247 260 260 261 268 274 281 289 294 301 307 308 311 313 316 320 320 320 325 325 317 313 313 315 319 323 325 328 327 322 319 315 313 317 321 321 320 317 314 317 320 322 324 324 324 326 328 324 318 316 315 314 314 315 314 314 314 313 312
222 204 355 234 201 199 224 227 249 44 170 196 227 235 148 121 101 162 200 207 200 203 210 228 238 233 228 241 257 260 262 268 276 285 291 294 299 302 300 303 308 310 311 312 315 320 320 313 309 310 311 316 321 322 323 325 322 317 314 314 317 321 321 321 317 314 319 323 324 326 327 327 328 328 322 316 315 314 312 314 316 315 315 316 315 314
284 74 99 232 253 283 267 240 218 217 203 204 231 231 170 159 169 190 205 213 215 218 220 227 241 242 231 232 245 254 263 273 279 282 284 286 289 291 293 298 305 306 306 310 315 319 318 313 308 307 309 313 318 319 319 320 319 316 314 314 316 319 321 320 317 317 322 325 324 326 328 326 324 324 321 316 315 313 310 312 314 313 315 316 315 316
221 157 184 229 258 273 254 200 184 217 215 208 218 215 209 235 229 205 211 217 215 220 220 214 221 229 221 217 230 246 257 264 268 273 277 280 282 285 289 297 304 305 305 310 315 317 316 312 308 307 308 311 315 318 319 318 317 315 314 313 313 316 318 318 317 319 322 325 325 326 326 322 319 319 319 317 316 315 312 312 312 313 315 316 316 318
161 161 201 222 215 227 249 256 246 251 244 227 224 222 222 234 230 220 226 228 215 214 211 200 201 210 214 216 224 239 254 258 260 267 275 277 278 280 287 294 299 302 303 307 310 311 309 305 303 304 305 307 312 315 316 316 316 316 315 313 313 315 315 315 316 318 321 323 323 323 322 319 317 316 315 314 315 314 313 313 312 311 312 313 314 316
112 182 203 202 220 250 269 267 252 256 255 233 222 229 236 233 224 220 220 219 210 207 207 207 207 211 219 225 223 233 254 263 262 264 270 274 274 276 285 292 294 296 299 301 302 302 299 295 295 297 297 299 304 309 309 310 313 316 315 312 313 314 311 311 314 316 319 321 320 318 318 316 313 310 310 310 310 308 306 306 306 305 304 306 309 312
166 219 202 178 236 251 252 239 224 245 263 241 207 215 222 213 208 212 208 206 213 213 211 215 213 208 214 222 221 229 250 259 260 261 263 267 271 275 282 289 291 291 293 295 296 296 292 288 290 291 291 292 296 300 303 304 308 310 310 310 313 312 307 310 313 312 313 316 316 313 313 311 307 306 308 308 307 308 306 303 302 301 300 302 307 310
203 221 198 196 233 239 225 219 213 229 260 260 212 208 212 195 197 215 219 221 226 224 215 218 224 222 220 219 217 225 243 256 260 261 261 263 269 275 281 284 286 288 291 294 296 295 293 293 292 289 287 289 292 296 302 305 306 306 308 312 315 309 304 311 315 309 306 309 309 307 307 307 305 305 306 306 307 309 309 307 306 303 300 304 311 314